Hastings, NE

10:35 PM CDT on September 23, 2017 (GMT -0500)
Hastings Municipal

Weather History for KHSI - February, 2015

Change the Weather History Date:

Thursday, February 19, 2015

  Actual Average Record
Temperature  
Mean Temperature 21 °F 31 °F  
Max Temperature 27 °F 41 °F 71 °F (2017)
Min Temperature 14 °F 21 °F -8 °F (1993)
Degree Days  
Heating Degree Days 44 34  
Month to date heating degree days 706 688  
Since 1 July heating degree days 4227 4337  
Cooling Degree Days 0 0  
Month to date cooling degree days 0 0  
Year to date cooling degree days 0 0  
Moisture  
Dew Point 7 °F    
Average Humidity 62    
Maximum Humidity 74    
Minimum Humidity 50    
Precipitation  
Precipitation 0.00 in 0.02 in 1.53 in (1971)
Month to date precipitation 0.33 0.31  
Year to date precipitation 1.10 0.72  
Snow  
Snow 0.00 in 0.20 in 2.00 in (1908)
Month to date snowfall 5.2 4.7  
Since 1 July snowfall 16.0 20.6  
Snow Depth 1.00 in    
Sea Level Pressure  
Sea Level Pressure 30.24 in    
Wind  
Wind Speed 12 mph (SSE)    
Max Wind Speed 21 mph    
Max Gust Speed 28 mph    
Visibility 10 miles    
Events      
T = Trace of Precipitation, MM = Missing Value Source: NWS Daily Summary

Daily Weather History Graph

Daily Weather History Graph

Search for Another Location

Airport or City:

Trip Planner

Search our weather history database for the weather conditions in past years. The results will help you decide how hot, cold, wet, or windy it might be!

Date:

Astronomy

Feb. 19, 2015 Rise Set
Actual Time 7:22 AM CST 6:13 PM CST
Civil Twilight 6:54 AM CST 6:41 PM CST
Nautical Twilight 6:22 AM CST 7:13 PM CST
Astronomical Twilight 5:51 AM CST 7:44 PM CST
Moon 7:35 AM CST (2/19) 7:28 PM CST (2/19)
Length of Visible Light 11h 46m
Length of Day
10h 50m
New Moon, 1% of the Moon is Illuminated
Feb 19
New Moon
Feb 25
First Quarter
Mar 5
Full
Mar 13
Last Quarter
Mar 20
New

Hourly Weather History & Observations

Time (CST) Temp. Windchill Dew Point Humidity Pressure Visibility Wind Dir Wind Speed Gust Speed Precip Events Conditions
12:53 AM 15.1 °F 6.4 °F 3.0 °F 59% 30.42 in 10.0 mi ENE 5.8 mph - N/A   Overcast
1:53 AM 14.0 °F 5.1 °F 1.0 °F 56% 30.44 in 10.0 mi South 5.8 mph - N/A   Overcast
2:53 AM 14.0 °F 2.0 °F 1.9 °F 59% 30.40 in 10.0 mi SE 9.2 mph - N/A   Overcast
3:53 AM 14.0 °F 2.0 °F 1.9 °F 59% 30.40 in 10.0 mi South 9.2 mph - N/A   Overcast
4:53 AM 15.1 °F 4.2 °F 5.0 °F 64% 30.37 in 10.0 mi South 8.1 mph - N/A   Overcast
5:53 AM 15.1 °F 4.2 °F 3.9 °F 61% 30.35 in 10.0 mi SE 8.1 mph - N/A   Overcast
6:53 AM 15.1 °F 1.8 °F 5.0 °F 64% 30.33 in 10.0 mi SSE 11.5 mph - N/A   Overcast
7:53 AM 16.0 °F 4.4 °F 6.1 °F 65% 30.31 in 10.0 mi SSE 9.2 mph - N/A   Overcast
8:53 AM 17.1 °F 4.3 °F 6.1 °F 62% 30.32 in 10.0 mi SE 11.5 mph - N/A   Overcast
9:53 AM 19.0 °F 4.5 °F 5.0 °F 54% 30.31 in 10.0 mi SSE 16.1 mph - N/A   Overcast
10:53 AM 21.2 °F 7.3 °F 6.8 °F 54% 30.19 in 10.0 mi SE 16.1 mph - N/A   Overcast
11:53 AM 23.0 °F 9.6 °F 9.0 °F 55% 30.26 in 10.0 mi SE 16.1 mph - N/A   Overcast
12:53 PM 24.1 °F 12.5 °F 10.0 °F 55% 30.25 in 10.0 mi SE 12.7 mph - N/A   Overcast
1:53 PM 24.1 °F 10.6 °F 9.0 °F 53% 30.20 in 10.0 mi SSE 17.3 mph 25.3 mph N/A   Overcast
2:53 PM 26.1 °F 14.5 °F 10.0 °F 51% 30.17 in 10.0 mi South 13.8 mph 23.0 mph N/A   Overcast
3:53 PM 27.0 °F 15.2 °F 10.0 °F 49% 30.15 in 10.0 mi SSE 15.0 mph - N/A   Clear
4:53 PM 26.1 °F 13.1 °F 10.9 °F 53% 30.13 in 10.0 mi SSE 17.3 mph - N/A   Clear
5:53 PM 24.1 °F 13.7 °F 10.9 °F 57% 30.12 in 10.0 mi SSE 10.4 mph - N/A   Clear
6:53 PM 21.9 °F 10.4 °F 10.9 °F 63% 30.14 in 10.0 mi SSE 11.5 mph - N/A   Clear
7:53 PM 19.0 °F 7.5 °F 10.9 °F 71% 30.15 in 10.0 mi SE 10.4 mph - N/A   Clear
8:53 PM 18.0 °F 4.2 °F 10.9 °F 74% 30.12 in 10.0 mi SSE 13.8 mph - N/A   Clear
9:53 PM 17.1 °F 3.6 °F 10.0 °F 74% 30.10 in 10.0 mi SSE 12.7 mph - N/A   Clear
10:53 PM 17.1 °F 5.8 °F 10.0 °F 74% 30.07 in 10.0 mi South 9.2 mph - N/A   Clear
11:53 PM 18.0 °F 6.9 °F 10.9 °F 74% 30.04 in 10.0 mi South 9.2 mph - N/A   Clear